Hourly Data Report for June 23, 2022

MIRAMICHI RCS
NEW BRUNSWICK
Current Station Operator: ECCC - MSC

47°00'34.000" N
65°27'54.000" W
33.00 m
8100989
71744
ACQ

Download Data

Hourly Data (June 2022)
Hourly Data Report for June 23, 2022
TIME
LST
Temp Definition
°C
Dew Point Definition
°C
Rel Hum Definition
%
Precip. Amount Definition
mm

Wind Dir Definition
10's deg

Wind Spd Definition
km/h
Visibility Definition
km
Stn Press Definition
kPa
Hmdx Definition


Wind Chill Definition


Weather Definition


00:00 11.7 9.5 86 0.0 19 14   101.54     LegendNANA
01:00 10.9 9.3 90 0.0 19 14   101.54     LegendNANA
02:00 10.6 9.0 89 0.0 21 17   101.53     LegendNANA
03:00 9.6 8.3 92 0.0 22 10   101.57     LegendNANA
04:00 9.3 8.0 92 0.0 21 12   101.58     LegendNANA
05:00 10.2 8.9 91 0.0 22 19   101.57     LegendNANA
06:00 10.7 8.8 88 0.0 23 20   101.61     LegendNANA
07:00 11.4 8.7 83 0.0 23 22   101.64     LegendNANA
08:00 13.0 9.9 81 0.0 22 19   101.66     LegendNANA
09:00 14.8 10.3 75 0.0 23 23   101.60     LegendNANA
10:00 17.2 11.3 68 0.0 26 14   101.53     LegendNANA
11:00 19.4 11.7 61 0.0 22 19   101.50     LegendNANA
12:00 20.9 12.2 58 0.0 23 20   101.44     LegendNANA
13:00 22.3 12.3 53 0.0 23 20   101.38 25   LegendNANA
14:00 23.6 13.0 51 0.0 21 17   101.34 26   LegendNANA
15:00 24.2 12.1 47 0.0 22 20   101.30 27   LegendNANA
16:00 24.7 12.7 47 0.0 21 19   101.25 27   LegendNANA
17:00 24.0 12.6 49 0.0 20 15   101.25 27   LegendNANA
18:00 24.0 12.8 49 0.0 19 21   101.25 27   LegendNANA
19:00 22.7 12.3 52 0.0 19 17   101.31 25   LegendNANA
20:00 20.2 12.4 61 0.0 19 10   101.34     LegendNANA
21:00 19.7 12.7 64 0.0 19 11   101.40     LegendNANA
22:00 18.8 13.0 69 0.0 18 9   101.41     LegendNANA
23:00 18.2 12.9 71 0.0 19 2   101.39     LegendNANA

Notes on Data Quality.

Legend

  • E = Estimated
  • M = Missing
  • NA = Not Available*
  • [empty] = Indicates an unobserved value
Date modified: